Regional Weather Roundup
Issued by NWS

Home | Current Version | Previous Version | Graphics & Text | Print | Product List | Glossary On
Versions: 1 2 3 4 5 6 7 8 9 10 11 12 13 14 15 16 17 18 19 20 21 22 23 24 25 26 27 28 29 30 31 32 33 34 35 36 37 38 39 40 41 42 43 44 45 46 47 48 49 50
000
ASUS45 KSLC 241210
RWRUT

UTAH REGIONAL WEATHER ROUNDUP
NATIONAL WEATHER SERVICE SALT LAKE CITY UT
600 AM MDT TUE APR 24 2018

UTZ001>011-023>025-241300-

NORTHERN UTAH

CITY           SKY/WX    TMP DP  RH WIND       PRES   REMARKS
BRIGHAM CITY   CLEAR     41  31  67 NW7       30.27R
HILL AFB       CLEAR     41  29  61 E8G20     30.25R
LOGAN          CLEAR     34  30  85 CALM      30.30R
OGDEN          CLEAR     40  32  73 W5        30.24R
SALT LAKE CITY PTCLDY    44  37  76 SW3       30.25R
TOOELE VALLEY  CLEAR     34  32  93 S6        30.28R WCI  29
WENDOVER       CLEAR     47  26  44 CALM      30.28S
HEBER CITY       N/A     30  21  69 CALM      30.28R
WEST JORDAN    CLEAR     39  35  87 CALM      30.27R

$$

UTZ011>015-024>027-241300-

CENTRAL/NORTHEAST UTAH

CITY           SKY/WX    TMP DP  RH WIND       PRES   REMARKS
PROVO AIRPORT  CLEAR     42  29  59 CALM      30.26R
MOAB/CANYONLAN PTCLDY    53  18  25 NW10      30.09R
DELTA          MOCLDY    45  30  57 N9        30.23R
PRICE          PTCLDY    39  12  33 N8        30.19S WCI  33
RICHFIELD      CLEAR     36  23  60 CALM      30.24
ROOSEVELT      CLEAR     32  25  74 SW6       30.30R WCI  26
VERNAL         CLEAR     40  26  57 N9        30.28R WCI  34

$$

UTZ013>016-019>022-027-241300-

SOUTHERN UTAH

CITY           SKY/WX    TMP DP  RH WIND       PRES   REMARKS
BRYCE CANYON   CLEAR     28  24  85 W7        30.25S WCI  21
CEDAR CITY     CLEAR     38  31  76 S3        30.19R
MILFORD        CLEAR     43  25  49 MISG      30.20R
ST GEORGE      SUNNY     63  30  28 N8        30.04R
HANKSVILLE     CLEAR     54  18  24 CALM      30.15R
KANAB          CLEAR     43  27  52 NE6       30.15
BLANDING         N/A     54  23  30 NE12      30.19S

$$

REGIONAL REPORTS     COLORADO/ARIZONA

CITY           SKY/WX    TMP DP  RH WIND       PRES   REMARKS
CRAIG, CO      CLOUDY    31  28  89 SW8       30.30R WCI  23
GRAND JUNCTION MOCLDY    53  29  39 S7        30.13R
RIFLE, CO      CLEAR     44  31  60 W9        30.20R
MONTROSE, CO   MOCLDY    49  35  58 S13       30.20F
CORTEZ, CO     CLEAR     38  22  52 NE7       30.13S WCI  33
COLORADO CITY    N/A     36  28  75 SE5       30.13S WCI  32
PAGE, AZ       PTCLDY    63  23  21 NW7       30.06R
GRAND CANYON   MOCLDY    28  14  55 CALM      30.21R
KINGMAN, AZ    PTCLDY    57  21  24 SE6       30.02S
FLAGSTAFF, AZ  MOCLDY    41  18  39 W3        30.22R

$$

REGIONAL REPORTS    NEVADA/IDAHO/WYOMING

CITY           SKY/WX    TMP DP  RH WIND       PRES   REMARKS
LAS VEGAS, NV  MOCLDY    72  25  17 CALM      29.94R
ELY, NY        PTCLDY    36  17  46 NE12      30.26R WCI  28
ELKO, NV       PTCLDY    29  21  72 SW3       30.27R
POCATELLO, ID  CLEAR     32  27  81 NE3       30.37R
BURLEY, ID     CLEAR     36  28  73 E7        30.35R WCI  30
FORT BRIDGER,  PTSUNNY   25  25 100 MISG      30.38R
EVANSTON, WY   MOCLDY    29  26  89 E16       30.32R WCI  17
ROCK SPRINGS,  CLOUDY    30  22  72 NE14      30.38R WCI  19
KEMMERER, WY   CLOUDY    28  23  80 N5        30.36R WCI  23

$$



USA.gov is the U.S. government's official web portal to all federal, state and local government web resources and services.